Other Public Products
Issued by NWS Grand Forks, ND

Home | Current Version | Previous Version | Graphics & Text | Print | Product List | Glossary On
Versions: 1 2 3 4 5 6 7 8 9 10 11 12 13 14 15 16 17 18 19 20 21 22 23 24 25 26 27 28 29 30 31 32 33 34 35 36 37 38 39 40 41 42 43 44 45 46 47 48 49 50
000
FPUS83 KFGF 281531
OPUFGF
PRAIRIE TO PINES WEATHER ROUNDUP
NATIONAL WEATHER SERVICE EASTERN NORTH DAKOTA/GRAND FORKS ND
1000 AM CDT MON JUL 28 2014

 **SATELLITE DATA USED TO AUGMENT SKY COVER AT AUTOMATED STATIONS**
 *****  WEATHER ACROSS EASTERN NORTH DAKOTA  *****

CITY           SKY/WX    TMP DP  RH WIND       PRES   REMARKS
GRAND FORKS    PTSUNNY   65  56  72 NW8       30.28R
GRAND FORKS AF MOSUNNY   66  58  75 N8        30.29S
GRAND CITY NWS   N/A     66 N/A N/A VRB5        N/A
BUXTON           N/A     66  60  81 NW8         N/A
DEVILS LAKE    SUNNY     64  54  68 NW7       30.31R
FARGO          CLOUDY    65  56  72 NW9       30.28S
WAHPETON ARPT  CLOUDY    64  54  68 N7        30.28S
$$

 *****  WEATHER ACROSS CENTRAL AND WESTERN NORTH DAKOTA  *****

CITY           SKY/WX    TMP DP  RH WIND       PRES   REMARKS
JAMESTOWN      SUNNY     65  54  67 N8        30.32S
BISMARCK       SUNNY     64  52  64 CALM      30.34F
MINOT          PTSUNNY   67  54  63 N3        30.33S
MINOT AFB      MOSUNNY   65  53  65 N3        30.33S
GARRISON         N/A     64  55  72 NW3       30.34S
WILLISTON      SUNNY     66  53  63 VRB3      30.32F
DICKINSON      SUNNY     65  53  65 S8        30.33S
HETTINGER      SUNNY     65  52  62 SE6       30.36S
$$

 *****  OTHER OBSERVATIONS NORTHEAST NORTH DAKOTA  *****

CITY           SKY/WX    TMP DP  RH WIND       PRES   REMARKS
WALHALLA         N/A     68  57  68 N9          N/A
LANGDON        FAIR      66  54  63 NW10      30.31S
CAVALIER       FAIR      66  55  68 NW7       30.29S
GRAFTON        FAIR      66  55  68 NW6       30.29S
CANDO          FAIR      66  55  68 NW6       30.33S
FORT TOTTEN    NOT AVBL
ROLLA          FAIR      64  54  68 NW10      30.34S
RUGBY          FAIR      63  57  82 NW6       30.33S
 ***** THE ABOVE OBSERVATIONS ARE NON NWS ARE NOT QUALITY
        CONTROLLED AND MAY MIS-REPORT RAIN FOR SNOW...
$$

 *****  OTHER OBSERVATIONS SOUTHEAST NORTH DAKOTA *****

CITY           SKY/WX    TMP DP  RH WIND       PRES   REMARKS
COOPERSTOWN    NOT AVBL
VALLEY CITY    FAIR      66  55  68 NW9       30.31F
OAKES          NOT AVBL
GWINNER        PTSUNNY   66  55  68 N8        30.31S
SHEYENNE NWR     N/A     66  56  71 N6        29.95S
BUFFALO        NOT AVBL
WYNDMERE       NOT AVBL
 ***** THE ABOVE OBSERVATIONS ARE NON NWS ARE NOT QUALITY
       CONTROLLED AND MAY MIS-REPORT RAIN FOR SNOW...
$$

  *****  WEATHER ACROSS NORTHERN MINNESOTA  *****

CITY           SKY/WX    TMP DP  RH WIND       PRES   REMARKS
FLAG ISLAND    SUNNY     64  55  72 NW9       30.22S
WARROAD        SUNNY     66  59  77 NW6       30.26R
ROSEAU         SUNNY     70  61  73 NW5       30.26S
HALLOCK        SUNNY     66  57  72 NW8       30.27S
THF RVR FALLS  MOSUNNY   66  54  63 NW14      30.27S
HALSTAD          N/A     66  57  72 NW6         N/A
FOSSTON        CLOUDY    64  55  72 NW8       30.27S
BAUDETTE       SUNNY     68  58  70 NW9       30.24R
WASKISH        SUNNY     70  59  68 CALM      30.23S
CROOKSTON      CLOUDY    64  57  77 N9        30.29R
$$
  *****  WEATHER ACROSS CENTRAL AND WEST MINNESOTA  *****

CITY           SKY/WX    TMP DP  RH WIND       PRES   REMARKS
BEMIDJI        SUNNY     67  56  67 NW7       30.24S
PARK RAPIDS    SUNNY     67  56  67 NW8       30.25R
WADENA         CLOUDY    64  57  77 W8        30.25S
DETROIT LAKES  MOSUNNY   64  57  77 NW9       30.28S
MOORHEAD       CLOUDY    64  61  88 NW8       30.29S
FERGUS FALLS   CLOUDY    61  55  82 N9        30.28S
ELBOW LAKE     CLOUDY    61  57  89 NW8       30.27S
MORRIS MN      PTSUNNY   66  57  72 NW10      30.26S
STAPLES        MOSUNNY   66  55  68 NW8       30.24S
WHEATON        CLOUDY    63  55  77 NW6       30.30S
$$
  *****  WEATHER ELSEWHERE ACROSS MINNESOTA  *****

CITY           SKY/WX    TMP DP  RH WIND       PRES   REMARKS
DULUTH         MOSUNNY   67  54  63 NW10      30.18S
INTRNTL FALLS  SUNNY     68  55  63 NW8       30.20S
ELY            SUNNY     66  52  59 N8        30.17S
CLOQUET        SUNNY     66  54  63 NW8       30.19S
BRAINERD       SUNNY     68  54  60 N9        30.23S
HIBBING        SUNNY     67  53  61 NW13      30.21S
ALEXANDRIA     CLOUDY    63  57  81 NW6       30.27S
SAINT CLOUD    CLOUDY    69  58  67 NW7       30.22R
MINNEAPOLIS    CLOUDY    68  57  68 NW9       30.21R
$$

  *****  WEATHER ACROSS SOUTH DAKOTA  *****

CITY           SKY/WX    TMP DP  RH WIND       PRES   REMARKS
SIOUX FALLS    PTSUNNY   67  58  72 N14       30.28S
BROOKINGS      NOT AVBL
WATERTOWN      PTSUNNY   66  54  65 N14       30.29F
HURON          SUNNY     64  57  78 N10       30.30F
SISSETON         N/A     66  57  72 N10       30.28S
ABERDEEN       MOSUNNY   65  56  72 NE9       30.32S
MITCHELL       SUNNY     65  58  78 N10       30.31F
PIERRE         SUNNY     66  56  70 NW6       30.33S
MOBRIDGE       SUNNY     63  56  78 VRB3      30.33S
RAPID CITY     SUNNY     66  57  72 SE10      30.35S
$$

  *****  SOME WEATHER IN NEARBY STATES *****

CITY           SKY/WX    TMP DP  RH WIND       PRES   REMARKS
GLASGOW MT     SUNNY     68  53  58 E8        30.28S
GREAT FALLS MT MOSUNNY   68  42  38 VRB3      30.26R
CHEYENNE WY    SUNNY     67  56  67 CALM      30.41S
SCOTTSBLUFF NE SUNNY     67  53  61 E12       30.35S
OMAHA NE       PTSUNNY   66  56  70 N7        30.27S
DES MOINES IA  MOSUNNY   71  54  54 NE8       30.21R
DAVENPORT IA   MOSUNNY   66  53  63 N13       30.15R
CHICAGO IL     MOSUNNY   64  45  49 N18       30.06R
EAU CLAIRE WI  CLOUDY    69  51  52 VRB6      30.17S
LA CROSSE WI   SUNNY     68  54  60 VRB5      30.17
$$

  *****  SOME NATIONAL WEATHER *****

CITY           SKY/WX    TMP DP  RH WIND       PRES   REMARKS
LA GUARDIA NY  CLOUDY    75  66  73 SW12      29.54F
RALEIGH NC     MOSUNNY   82  64  54 W10       29.80F
ATLANTA GA     MOSUNNY   85  75  72 W9        29.96R HX  93
NEW ORLEANS LA MOSUNNY   88  76  67 W15       30.09F HX  99
OKLAHOMA CITY  CLOUDY    79  59  50 NE9       30.24R
ALBUQUERQUE NM CLOUDY    75  54  47 E12       30.40S
SALT LAKE CITY PTSUNNY   84  47  27 SE12      30.20R
LOS ANGELES CA CLOUDY    71  63  75 SW3       30.06R
BOISE ID       PTSUNNY   74  45  35 CALM      30.07R
SEATTLE WA     SUNNY     65  23  20 CALM      30.14S
$$

*** WEATHER ACROSS MANITOBA...SASKATCHEWAN AND ONTARIO ***
                ***ONTARIO***

CITY           SKY/WX    TMP DP  RH WIND       PRES   REMARKS
GERALDTON      PTSUNNY   64  52  63 W9        30.01F
THUNDER BAY    CLOUDY    63  55  77 W6        30.09S
SIOUX LOOKOUT  PTSUNNY   64  54  68 NW9       30.14F
TORONTO        MOSUNNY   61  55  82 N16G24    29.74R
BIG TROUT LK   PTSUNNY   59  57  94 W6        30.04F
PICKLE LAKE    CLOUDY    63  54  72 NW5       30.09S
DRYDEN         SUNNY     66  54  63 NW9G17    30.17F
KENORA         CLOUDY    66  55  68 NW7       30.23S
$$
                *** MANITOBA***

CITY           SKY/WX    TMP DP  RH WIND       PRES   REMARKS
BRANDON        MOSUNNY   66  54  63 NW9       30.33S
DAUPHIN        SUNNY     64  57  77 W6        30.31S
ISLAND LAKE    MOSUNNY   70  57  64 NW8       30.17S
PILOT MOUND      N/A     63  54  72 NW7         N/A
THE PAS        SUNNY     66  55  68 NW2       30.28S
THOMPSON       MOSUNNY   73  54  49 NW7       30.20F
WINNIPEG       MOSUNNY   68  54  60 NW10      30.28S
LYNN LAKE      SUNNY     70  48  46 W7        30.23F
CHURCHILL      MOSUNNY   59  52  77 NE6       30.07R
GILLAM         SUNNY     70  57  64 W10       30.10F
$$
                ***SASKATCHEWAN***

CITY           SKY/WX    TMP DP  RH WIND       PRES   REMARKS
ESTEVAN        MOSUNNY   66  57  72 CALM      30.34S
KINDERSLEY     MOSUNNY   68  59  73 S3        30.28S
LLOYDMINSTER   SUNNY     70  59  68 SW3       30.27S
PRINCE ALBERT  PTSUNNY   64  59  82 SE5       30.29S
REGINA         SUNNY     64  57  77 SE8       30.30F


USA.gov is the U.S. government's official web portal to all federal, state and local government web resources and services.